| time (UTC) | temp C | wind direction | speed KPH | gust KPH | rain 1hr cm | rain 24hr cm | rain mn cm | humidity % | barometer mb |
| 20260906105545 | 16 | 0 | 0.0 | 3.2 | 0.00 | 0.03 | 0.00 | 97 | 1018.5 |
| 20260906105044 | 16 | 24 | 1.6 | 3.2 | 0.00 | 0.03 | 0.00 | 97 | 1018.3 |
| 20260906104604 | 16 | 0 | 0.0 | 1.6 | 0.00 | 0.03 | 0.00 | 97 | 1018.3 |
| 20260906104044 | 16 | 0 | 0.0 | 1.6 | 0.00 | 0.03 | 0.00 | 97 | 1018.0 |
| 20260906103544 | 16 | 0 | 0.0 | 0.0 | 0.00 | 0.03 | 0.00 | 97 | 1018.0 |
| 20260906103101 | 16 | 0 | 0.0 | 1.6 | 0.00 | 0.03 | 0.00 | 97 | 1018.1 |
| 20260906102545 | 16 | 0 | 0.0 | 1.6 | 0.00 | 0.03 | 0.00 | 97 | 1018.2 |
| 20260906102046 | 16 | 0 | 0.0 | 1.6 | 0.00 | 0.03 | 0.00 | 97 | 1018.2 |
| 20260906101557 | 16 | 24 | 0.0 | 3.2 | 0.00 | 0.03 | 0.00 | 96 | 1018.3 |
| 20260906101046 | 16 | 24 | 0.0 | 3.2 | 0.00 | 0.03 | 0.00 | 96 | 1018.4 |
| 20260906100548 | 16 | 24 | 1.6 | 3.2 | 0.00 | 0.03 | 0.00 | 96 | 1018.3 |
| 20260906095544 | 16 | 0 | 0.0 | 1.6 | 0.00 | 0.05 | 0.00 | 97 | 1018.0 |
| 20260906095044 | 16 | 0 | 0.0 | 1.6 | 0.00 | 0.05 | 0.00 | 97 | 1018.1 |
| 20260906094608 | 16 | 24 | 0.0 | 1.6 | 0.00 | 0.05 | 0.00 | 97 | 1018.2 |
| 20260906094044 | 16 | 0 | 0.0 | 0.0 | 0.00 | 0.05 | 0.00 | 97 | 1018.3 |
| 20260906093544 | 16 | 0 | 0.0 | 0.0 | 0.00 | 0.05 | 0.00 | 96 | 1018.3 |
| 20260906093100 | 16 | 0 | 0.0 | 0.0 | 0.00 | 0.05 | 0.00 | 96 | 1018.3 |
| 20260906092546 | 16 | 0 | 0.0 | 0.0 | 0.00 | 0.05 | 0.00 | 96 | 1018.1 |
| 20260906092046 | 16 | 0 | 0.0 | 0.0 | 0.00 | 0.05 | 0.00 | 96 | 1018.2 |
| 20260906091605 | 16 | 0 | 0.0 | 1.6 | 0.00 | 0.05 | 0.00 | 96 | 1018.2 |
| 20260906091048 | 16 | 0 | 0.0 | 1.6 | 0.00 | 0.05 | 0.00 | 96 | 1018.2 |
| 20260906090545 | 16 | 24 | 0.0 | 1.6 | 0.00 | 0.05 | 0.00 | 96 | 1018.1 |
| 20260906090104 | 16 | 0 | 0.0 | 1.6 | 0.00 | 0.05 | 0.00 | 96 | 1018.1 |
| 20260906085546 | 16 | 0 | 0.0 | 1.6 | 0.00 | 0.05 | 0.00 | 96 | 1018.1 |
| 20260906085048 | 16 | 0 | 0.0 | 1.6 | 0.00 | 0.05 | 0.00 | 96 | 1018.1 |
| 20260906084605 | 16 | 0 | 0.0 | 0.0 | 0.00 | 0.05 | 0.00 | 96 | 1018.2 |
| 20260906084045 | 16 | 0 | 0.0 | 0.0 | 0.00 | 0.05 | 0.00 | 96 | 1018.1 |
| 20260906083547 | 16 | 0 | 0.0 | 1.6 | 0.00 | 0.05 | 0.00 | 96 | 1018.1 |
| 20260906083105 | 16 | 0 | 0.0 | 1.6 | 0.00 | 0.05 | 0.00 | 96 | 1018.0 |
| 20260906082546 | 16 | 0 | 0.0 | 3.2 | 0.00 | 0.05 | 0.00 | 96 | 1018.1 |
| 20260906082046 | 16 | 0 | 0.0 | 3.2 | 0.00 | 0.05 | 0.00 | 96 | 1018.1 |
| 20260906081605 | 16 | 24 | 0.0 | 3.2 | 0.00 | 0.05 | 0.00 | 96 | 1018.0 |
| 20260906081044 | 17 | 0 | 1.6 | 3.2 | 0.00 | 0.05 | 0.00 | 96 | 1018.1 |
| 20260906080547 | 17 | 24 | 0.0 | 3.2 | 0.00 | 0.05 | 0.00 | 96 | 1018.0 |
| 20260906080105 | 17 | 24 | 0.0 | 3.2 | 0.00 | 0.05 | 0.00 | 96 | 1018.1 |
| 20260906075545 | 17 | 78 | 1.6 | 3.2 | 0.00 | 0.05 | 0.00 | 96 | 1018.0 |
| 20260906075046 | 17 | 138 | 0.0 | 1.6 | 0.00 | 0.05 | 0.00 | 96 | 1017.9 |
| 20260906074607 | 17 | 0 | 0.0 | 3.2 | 0.00 | 0.05 | 0.00 | 96 | 1018.0 |
| 20260906074046 | 17 | 0 | 0.0 | 3.2 | 0.00 | 0.05 | 0.00 | 96 | 1018.0 |
| 20260906073546 | 17 | 0 | 0.0 | 3.2 | 0.00 | 0.05 | 0.00 | 96 | 1018.0 |
| 20260906073059 | 17 | 0 | 0.0 | 3.2 | 0.00 | 0.05 | 0.00 | 96 | 1018.2 |
| 20260906072546 | 17 | 138 | 1.6 | 3.2 | 0.00 | 0.05 | 0.00 | 96 | 1018.1 |
| 20260906072046 | 17 | 138 | 1.6 | 3.2 | 0.00 | 0.05 | 0.00 | 96 | 1018.0 |
| 20260906071600 | 17 | 138 | 1.6 | 3.2 | 0.00 | 0.05 | 0.00 | 96 | 1018.1 |
| 20260906071046 | 17 | 138 | 1.6 | 3.2 | 0.00 | 0.05 | 0.00 | 96 | 1018.2 |
| 20260906070546 | 18 | 0 | 0.0 | 0.0 | 0.00 | 0.05 | 0.00 | 96 | 1018.2 |
| 20260906070106 | 18 | 0 | 0.0 | 0.0 | 0.00 | 0.05 | 0.00 | 96 | 1018.2 |
| 20260906065547 | 18 | 0 | 0.0 | 0.0 | 0.00 | 0.05 | 0.00 | 96 | 1018.2 |
| 20260906065049 | 18 | 0 | 0.0 | 1.6 | 0.00 | 0.05 | 0.00 | 96 | 1018.3 |
| 20260906064602 | 18 | 0 | 0.0 | 1.6 | 0.00 | 0.05 | 0.00 | 96 | 1018.3 |
| 20260906064047 | 18 | 0 | 0.0 | 0.0 | 0.00 | 0.05 | 0.00 | 96 | 1018.3 |
| 20260906063545 | 18 | 0 | 0.0 | 0.0 | 0.00 | 0.05 | 0.00 | 96 | 1018.4 |
| 20260906063106 | 18 | 0 | 0.0 | 1.6 | 0.00 | 0.05 | 0.00 | 96 | 1018.3 |
| 20260906062545 | 18 | 0 | 0.0 | 1.6 | 0.00 | 0.05 | 0.00 | 96 | 1018.3 |
| 20260906062045 | 18 | 0 | 0.0 | 1.6 | 0.00 | 0.05 | 0.00 | 96 | 1018.2 |
| 20260906061607 | 18 | 0 | 0.0 | 1.6 | 0.00 | 0.05 | 0.00 | 96 | 1018.3 |
| 20260906061046 | 18 | 0 | 0.0 | 1.6 | 0.00 | 0.05 | 0.00 | 95 | 1018.4 |
| 20260906060545 | 18 | 0 | 0.0 | 1.6 | 0.00 | 0.05 | 0.00 | 96 | 1018.3 |
| 20260906060107 | 18 | 138 | 0.0 | 1.6 | 0.00 | 0.05 | 0.00 | 96 | 1018.4 |
| 20260906055546 | 18 | 0 | 0.0 | 1.6 | 0.00 | 0.05 | 0.00 | 95 | 1018.3 |
| 20260906055046 | 18 | 0 | 0.0 | 1.6 | 0.00 | 0.05 | 0.00 | 95 | 1018.3 |
| 20260906054559 | 18 | 0 | 0.0 | 1.6 | 0.00 | 0.05 | 0.00 | 95 | 1018.3 |
| 20260906054046 | 18 | 0 | 0.0 | 0.0 | 0.00 | 0.05 | 0.00 | 95 | 1018.2 |
| 20260906053546 | 18 | 0 | 0.0 | 0.0 | 0.00 | 0.05 | 0.00 | 95 | 1018.2 |
| 20260906053110 | 18 | 0 | 0.0 | 1.6 | 0.00 | 0.05 | 0.00 | 95 | 1018.1 |
| 20260906052548 | 18 | 0 | 0.0 | 1.6 | 0.00 | 0.05 | 0.00 | 95 | 1018.2 |
| 20260906052045 | 18 | 0 | 0.0 | 1.6 | 0.00 | 0.05 | 0.00 | 95 | 1018.2 |
| 20260906051602 | 18 | 138 | 0.0 | 1.6 | 0.00 | 0.05 | 0.00 | 95 | 1018.0 |
| 20260906051048 | 18 | 0 | 0.0 | 1.6 | 0.00 | 0.05 | 0.00 | 95 | 1018.0 |
| 20260906050548 | 18 | 138 | 0.0 | 0.0 | 0.00 | 0.05 | 0.00 | 95 | 1018.2 |
| 20260906050100 | 18 | 0 | 0.0 | 0.0 | 0.00 | 0.05 | 0.00 | 95 | 1018.0 |
| 20260906045546 | 19 | 0 | 0.0 | 0.0 | 0.00 | 0.05 | 0.05 | 95 | 1018.1 |
| 20260906045043 | 19 | 0 | 0.0 | 1.6 | 0.00 | 0.05 | 0.05 | 95 | 1018.2 |
| 20260906044602 | 19 | 0 | 0.0 | 1.6 | 0.00 | 0.05 | 0.05 | 95 | 1018.1 |
| 20260906044044 | 19 | 0 | 0.0 | 3.2 | 0.00 | 0.05 | 0.05 | 95 | 1018.1 |
| 20260906043543 | 19 | 0 | 0.0 | 4.8 | 0.00 | 0.05 | 0.05 | 95 | 1018.0 |
| 20260906043107 | 19 | 0 | 1.6 | 4.8 | 0.00 | 0.05 | 0.05 | 95 | 1018.0 |
| 20260906042543 | 19 | 138 | 1.6 | 4.8 | 0.00 | 0.05 | 0.05 | 95 | 1017.8 |
| 20260906042044 | 19 | 0 | 0.0 | 3.2 | 0.00 | 0.05 | 0.05 | 95 | 1017.8 |
| 20260906041600 | 19 | 138 | 0.0 | 3.2 | 0.00 | 0.05 | 0.05 | 95 | 1017.9 |
| 20260906041043 | 20 | 294 | 0.0 | 3.2 | 0.00 | 0.05 | 0.05 | 95 | 1017.8 |
| 20260906040548 | 20 | 0 | 0.0 | 3.2 | 0.00 | 0.05 | 0.05 | 95 | 1017.8 |
| 20260906040117 | 20 | 294 | 0.0 | 3.2 | 0.00 | 0.05 | 0.05 | 95 | 1017.7 |
| 20260906035543 | 20 | 0 | 0.0 | 6.4 | 0.00 | 0.05 | 0.05 | 95 | 1017.7 |
| 20260906035044 | 20 | 0 | 0.0 | 6.4 | 0.00 | 0.05 | 0.05 | 95 | 1017.7 |
| 20260906034607 | 20 | 0 | 1.6 | 6.4 | 0.00 | 0.05 | 0.05 | 95 | 1017.5 |
| 20260906034044 | 20 | 0 | 1.6 | 3.2 | 0.00 | 0.05 | 0.05 | 95 | 1017.3 |
| 20260906033547 | 20 | 219 | 0.0 | 3.2 | 0.00 | 0.05 | 0.05 | 95 | 1017.4 |
| 20260906033116 | 20 | 219 | 1.6 | 3.2 | 0.00 | 0.05 | 0.05 | 95 | 1017.3 |
| 20260906032544 | 20 | 219 | 1.6 | 3.2 | 0.00 | 0.05 | 0.05 | 95 | 1017.2 |
| 20260906032044 | 20 | 219 | 0.0 | 3.2 | 0.00 | 0.05 | 0.05 | 95 | 1017.3 |
| 20260906031607 | 20 | 219 | 0.0 | 3.2 | 0.00 | 0.05 | 0.05 | 95 | 1017.3 |
| 20260906031044 | 20 | 0 | 0.0 | 3.2 | 0.00 | 0.05 | 0.05 | 95 | 1017.2 |
| 20260906030544 | 20 | 0 | 0.0 | 1.6 | 0.00 | 0.05 | 0.05 | 95 | 1017.3 |
| 20260906030106 | 20 | 0 | 0.0 | 1.6 | 0.00 | 0.05 | 0.05 | 95 | 1017.2 |
| 20260906025543 | 20 | 219 | 0.0 | 1.6 | 0.00 | 0.05 | 0.05 | 95 | 1017.1 |
| 20260906025046 | 20 | 0 | 0.0 | 3.2 | 0.00 | 0.05 | 0.05 | 94 | 1017.0 |
| 20260906024609 | 20 | 0 | 0.0 | 3.2 | 0.00 | 0.05 | 0.05 | 94 | 1017.0 |
| 20260906024046 | 20 | 0 | 0.0 | 3.2 | 0.00 | 0.05 | 0.05 | 94 | 1017.0 |
| 20260906023547 | 20 | 0 | 0.0 | 3.2 | 0.00 | 0.05 | 0.05 | 94 | 1017.0 |
| 20260906023105 | 20 | 219 | 0.0 | 3.2 | 0.00 | 0.05 | 0.05 | 94 | 1016.8 |
| 20260906022543 | 20 | 0 | 0.0 | 1.6 | 0.00 | 0.05 | 0.05 | 94 | 1016.8 |
| 20260906022047 | 20 | 0 | 0.0 | 1.6 | 0.00 | 0.05 | 0.05 | 94 | 1016.8 |
| 20260906021607 | 20 | 0 | 0.0 | 3.2 | 0.00 | 0.05 | 0.05 | 94 | 1016.7 |
| 20260906021043 | 20 | 0 | 0.0 | 3.2 | 0.00 | 0.05 | 0.05 | 94 | 1016.6 |
| 20260906020546 | 20 | 0 | 0.0 | 4.8 | 0.00 | 0.05 | 0.05 | 94 | 1016.5 |
| 20260906020109 | 21 | 55 | 0.0 | 4.8 | 0.00 | 0.05 | 0.05 | 94 | 1016.5 |
| 20260906015543 | 20 | 0 | 0.0 | 4.8 | 0.00 | 0.05 | 0.05 | 93 | 1016.6 |
| 20260906015044 | 20 | 0 | 0.0 | 3.2 | 0.00 | 0.05 | 0.05 | 93 | 1016.4 |
| 20260906014602 | 21 | 349 | 0.0 | 3.2 | 0.00 | 0.05 | 0.05 | 93 | 1016.4 |
| 20260906014043 | 21 | 0 | 0.0 | 3.2 | 0.00 | 0.05 | 0.05 | 93 | 1016.2 |
| 20260906013547 | 21 | 0 | 0.0 | 3.2 | 0.00 | 0.05 | 0.05 | 93 | 1016.1 |
| 20260906013108 | 21 | 0 | 0.0 | 3.2 | 0.00 | 0.05 | 0.05 | 93 | 1016.0 |
| 20260906012547 | 21 | 190 | 0.0 | 3.2 | 0.00 | 0.05 | 0.05 | 93 | 1016.0 |
| 20260906012043 | 21 | 0 | 0.0 | 1.6 | 0.00 | 0.05 | 0.05 | 93 | 1016.0 |
| 20260906011606 | 21 | 0 | 0.0 | 3.2 | 0.00 | 0.05 | 0.05 | 93 | 1015.8 |
| 20260906011047 | 21 | 190 | 0.0 | 4.8 | 0.00 | 0.05 | 0.05 | 93 | 1015.7 |
| 20260906010543 | 21 | 190 | 0.0 | 4.8 | 0.00 | 0.05 | 0.05 | 93 | 1015.7 |
| 20260906010107 | 21 | 0 | 0.0 | 3.2 | 0.00 | 0.05 | 0.05 | 93 | 1015.7 |
| 20260906005544 | 21 | 122 | 0.0 | 3.2 | 0.00 | 0.05 | 0.05 | 93 | 1015.8 |
| 20260906005045 | 21 | 0 | 0.0 | 3.2 | 0.00 | 0.05 | 0.05 | 93 | 1015.7 |
| 20260906004611 | 21 | 0 | 0.0 | 1.6 | 0.00 | 0.05 | 0.05 | 93 | 1015.7 |
| 20260906004046 | 21 | 0 | 0.0 | 3.2 | 0.00 | 0.05 | 0.05 | 93 | 1015.8 |
| 20260906003544 | 21 | 0 | 0.0 | 3.2 | 0.00 | 0.05 | 0.05 | 92 | 1015.8 |
| 20260906003105 | 21 | 0 | 0.0 | 3.2 | 0.00 | 0.05 | 0.05 | 92 | 1015.8 |
| 20260906002545 | 21 | 0 | 0.0 | 3.2 | 0.00 | 0.05 | 0.05 | 92 | 1015.9 |
| 20260906002044 | 21 | 83 | 0.0 | 3.2 | 0.00 | 0.05 | 0.05 | 92 | 1015.9 |
| 20260906001611 | 21 | 0 | 0.0 | 3.2 | 0.00 | 0.05 | 0.05 | 91 | 1016.0 |
| 20260906001045 | 22 | 13 | 1.6 | 3.2 | 0.00 | 0.05 | 0.05 | 91 | 1016.0 |
| 20260906000543 | 22 | 13 | 0.0 | 1.6 | 0.00 | 0.05 | 0.05 | 91 | 1016.0 |
| 20260906000107 | 22 | 0 | 0.0 | 3.2 | 0.00 | 0.05 | 0.05 | 91 | 1016.2 |
| 20260905235543 | 22 | 13 | 0.0 | 3.2 | 0.00 | 0.05 | 0.05 | 91 | 1016.2 |
| 20260905235046 | 22 | 13 | 1.6 | 3.2 | 0.00 | 0.05 | 0.05 | 91 | 1016.1 |
| 20260905234601 | 22 | 13 | 0.0 | 3.2 | 0.00 | 0.05 | 0.05 | 91 | 1016.2 |
| 20260905234043 | 22 | 13 | 0.0 | 1.6 | 0.00 | 0.05 | 0.05 | 90 | 1016.0 |
| 20260905233545 | 22 | 13 | 0.0 | 3.2 | 0.00 | 0.05 | 0.05 | 90 | 1016.2 |
| 20260905233059 | 22 | 0 | 0.0 | 3.2 | 0.00 | 0.05 | 0.05 | 89 | 1015.9 |
| 20260905232543 | 22 | 13 | 1.6 | 3.2 | 0.00 | 0.05 | 0.05 | 88 | 1016.0 |
| 20260905232044 | 22 | 13 | 1.6 | 3.2 | 0.00 | 0.05 | 0.05 | 88 | 1015.9 |
| 20260905231558 | 22 | 13 | 1.6 | 3.2 | 0.00 | 0.05 | 0.05 | 87 | 1016.1 |
| 20260905231043 | 23 | 13 | 0.0 | 4.8 | 0.00 | 0.05 | 0.05 | 87 | 1016.0 |
| 20260905230543 | 23 | 13 | 1.6 | 4.8 | 0.00 | 0.05 | 0.05 | 86 | 1016.1 |
| 20260905230108 | 23 | 344 | 1.6 | 4.8 | 0.00 | 0.05 | 0.05 | 86 | 1016.1 |
| 20260905225544 | 23 | 30 | 1.6 | 4.8 | 0.00 | 0.05 | 0.05 | 85 | 1016.1 |
| 20260905225044 | 23 | 30 | 1.6 | 4.8 | 0.00 | 0.05 | 0.05 | 84 | 1016.1 |
| 20260905224559 | 24 | 15 | 1.6 | 6.4 | 0.00 | 0.05 | 0.05 | 83 | 1016.2 |
| 20260905224050 | 24 | 15 | 1.6 | 8.0 | 0.00 | 0.05 | 0.05 | 81 | 1016.3 |
| 20260905223548 | 25 | 46 | 3.2 | 8.0 | 0.00 | 0.05 | 0.05 | 79 | 1016.3 |
| 20260905223106 | 25 | 32 | 3.2 | 8.0 | 0.00 | 0.05 | 0.05 | 78 | 1016.3 |
| 20260905222546 | 25 | 5 | 4.8 | 14.5 | 0.00 | 0.05 | 0.05 | 78 | 1016.2 |
| 20260905222047 | 26 | 22 | 4.8 | 16.1 | 0.00 | 0.05 | 0.05 | 77 | 1016.1 |
| 20260905221606 | 26 | 350 | 6.4 | 16.1 | 0.00 | 0.05 | 0.05 | 75 | 1016.1 |
| 20260905221046 | 26 | 341 | 8.0 | 16.1 | 0.00 | 0.05 | 0.05 | 74 | 1016.0 |
| 20260905220545 | 26 | 11 | 4.8 | 11.3 | 0.00 | 0.05 | 0.05 | 76 | 1016.1 |
| 20260905220103 | 26 | 47 | 4.8 | 11.3 | 0.00 | 0.05 | 0.05 | 74 | 1016.0 |
| 20260905215545 | 26 | 31 | 4.8 | 12.9 | 0.00 | 0.05 | 0.05 | 75 | 1016.0 |
| 20260905215046 | 26 | 9 | 4.8 | 14.5 | 0.00 | 0.05 | 0.05 | 77 | 1015.9 |
| 20260905214607 | 26 | 15 | 4.8 | 14.5 | 0.00 | 0.05 | 0.05 | 75 | 1016.0 |
| 20260905214045 | 26 | 26 | 4.8 | 14.5 | 0.00 | 0.05 | 0.05 | 75 | 1015.9 |
| 20260905213546 | 26 | 24 | 4.8 | 12.9 | 0.00 | 0.05 | 0.05 | 74 | 1015.8 |
| 20260905213111 | 26 | 71 | 3.2 | 16.1 | 0.00 | 0.05 | 0.05 | 75 | 1015.7 |
| 20260905212545 | 26 | 53 | 4.8 | 16.1 | 0.00 | 0.05 | 0.05 | 76 | 1015.8 |
| 20260905212044 | 26 | 26 | 8.0 | 16.1 | 0.00 | 0.05 | 0.05 | 74 | 1016.0 |
| 20260905211601 | 26 | 5 | 6.4 | 14.5 | 0.00 | 0.05 | 0.05 | 76 | 1016.0 |
| 20260905211045 | 26 | 11 | 4.8 | 11.3 | 0.00 | 0.05 | 0.05 | 79 | 1015.9 |
| 20260905210547 | 26 | 5 | 3.2 | 12.9 | 0.00 | 0.05 | 0.05 | 77 | 1015.9 |
| 20260905210123 | 27 | 86 | 3.2 | 12.9 | 0.00 | 0.05 | 0.05 | 75 | 1015.9 |
| 20260905205545 | 27 | 65 | 4.8 | 12.9 | 0.00 | 0.05 | 0.05 | 77 | 1016.0 |
| 20260905205046 | 27 | 20 | 3.2 | 14.5 | 0.00 | 0.05 | 0.05 | 79 | 1016.1 |
| 20260905204604 | 26 | 57 | 4.8 | 14.5 | 0.00 | 0.05 | 0.05 | 79 | 1016.2 |
| 20260905204045 | 26 | 34 | 3.2 | 14.5 | 0.00 | 0.05 | 0.05 | 80 | 1016.2 |
| 20260905203546 | 26 | 260 | 0.0 | 6.4 | 0.00 | 0.05 | 0.05 | 80 | 1016.1 |
| 20260905203057 | 26 | 69 | 3.2 | 12.9 | 0.00 | 0.05 | 0.05 | 80 | 1016.2 |
| 20260905202546 | 26 | 360 | 4.8 | 12.9 | 0.00 | 0.05 | 0.05 | 79 | 1016.2 |
| 20260905202046 | 26 | 19 | 3.2 | 14.5 | 0.00 | 0.05 | 0.05 | 84 | 1016.2 |
| 20260905201559 | 26 | 46 | 4.8 | 14.5 | 0.00 | 0.05 | 0.05 | 84 | 1016.2 |
| 20260905201044 | 26 | 355 | 6.4 | 14.5 | 0.00 | 0.05 | 0.05 | 81 | 1016.2 |
| 20260905200544 | 26 | 32 | 3.2 | 16.1 | 0.00 | 0.05 | 0.05 | 81 | 1016.1 |
| 20260905200117 | 26 | 33 | 1.6 | 16.1 | 0.00 | 0.05 | 0.05 | 82 | 1016.2 |
| 20260905195545 | 26 | 5 | 8.0 | 19.3 | 0.00 | 0.05 | 0.05 | 80 | 1016.1 |
| 20260905195045 | 26 | 5 | 11.3 | 19.3 | 0.00 | 0.05 | 0.05 | 79 | 1016.0 |
| 20260905194611 | 26 | 22 | 8.0 | 14.5 | 0.00 | 0.05 | 0.05 | 80 | 1015.9 |
| 20260905194045 | 26 | 5 | 3.2 | 12.9 | 0.00 | 0.05 | 0.05 | 82 | 1016.0 |
| 20260905193545 | 25 | 42 | 3.2 | 12.9 | 0.00 | 0.05 | 0.05 | 83 | 1016.1 |
| 20260905193101 | 26 | 30 | 4.8 | 12.9 | 0.00 | 0.05 | 0.05 | 82 | 1016.1 |
| 20260905192546 | 26 | 15 | 4.8 | 14.5 | 0.00 | 0.05 | 0.05 | 81 | 1016.1 |
| 20260905192049 | 26 | 22 | 4.8 | 14.5 | 0.00 | 0.05 | 0.05 | 82 | 1016.1 |
| 20260905191609 | 26 | 5 | 8.0 | 12.9 | 0.00 | 0.05 | 0.05 | 81 | 1016.1 |
| 20260905191045 | 26 | 5 | 4.8 | 12.9 | 0.00 | 0.05 | 0.05 | 85 | 1016.2 |
| 20260905190547 | 25 | 326 | 3.2 | 14.5 | 0.00 | 0.05 | 0.05 | 85 | 1016.2 |
| 20260905190117 | 25 | 32 | 6.4 | 14.5 | 0.00 | 0.05 | 0.05 | 86 | 1016.3 |
| 20260905185545 | 24 | 40 | 4.8 | 12.9 | 0.00 | 0.05 | 0.05 | 87 | 1016.3 |
| 20260905185045 | 24 | 28 | 4.8 | 14.5 | 0.00 | 0.05 | 0.05 | 88 | 1016.4 |
| 20260905184624 | 24 | 14 | 4.8 | 14.5 | 0.00 | 0.05 | 0.05 | 88 | 1016.6 |
| 20260905184045 | 24 | 360 | 4.8 | 12.9 | 0.00 | 0.05 | 0.05 | 87 | 1016.6 |
| 20260905183545 | 24 | 5 | 3.2 | 9.7 | 0.00 | 0.05 | 0.05 | 87 | 1016.7 |
| 20260905183107 | 24 | 36 | 6.4 | 9.7 | 0.00 | 0.05 | 0.05 | 86 | 1016.6 |
| 20260905182545 | 24 | 345 | 1.6 | 4.8 | 0.00 | 0.05 | 0.05 | 88 | 1016.6 |
| 20260905182046 | 24 | 42 | 1.6 | 8.0 | 0.00 | 0.05 | 0.05 | 89 | 1016.7 |
| 20260905181602 | 23 | 0 | 3.2 | 8.0 | 0.00 | 0.05 | 0.05 | 90 | 1016.7 |
| 20260905181046 | 23 | 350 | 1.6 | 6.4 | 0.00 | 0.05 | 0.05 | 91 | 1016.7 |
| 20260905180545 | 23 | 0 | 1.6 | 6.4 | 0.00 | 0.05 | 0.05 | 92 | 1016.7 |
| 20260905180105 | 23 | 331 | 1.6 | 6.4 | 0.00 | 0.05 | 0.05 | 93 | 1016.8 |
| 20260905175545 | 22 | 13 | 1.6 | 9.7 | 0.00 | 0.05 | 0.05 | 94 | 1016.8 |
| 20260905175045 | 22 | 9 | 3.2 | 9.7 | 0.00 | 0.05 | 0.05 | 95 | 1016.8 |
| 20260905174601 | 22 | 19 | 1.6 | 8.0 | 0.00 | 0.05 | 0.05 | 96 | 1016.9 |
| 20260905174045 | 22 | 19 | 3.2 | 8.0 | 0.00 | 0.05 | 0.05 | 97 | 1016.9 |
| 20260905173550 | 22 | 355 | 3.2 | 8.0 | 0.00 | 0.05 | 0.05 | 97 | 1016.9 |
| 20260905173116 | 21 | 15 | 1.6 | 6.4 | 0.00 | 0.05 | 0.05 | 97 | 1017.0 |
| 20260905172546 | 21 | 23 | 3.2 | 14.5 | 0.00 | 0.05 | 0.05 | 97 | 1017.0 |
| 20260905172049 | 21 | 34 | 3.2 | 14.5 | 0.00 | 0.05 | 0.05 | 97 | 1016.9 |
| 20260905171625 | 21 | 5 | 3.2 | 14.5 | 0.00 | 0.05 | 0.05 | 97 | 1016.8 |
| 20260905171048 | 21 | 36 | 4.8 | 14.5 | 0.00 | 0.05 | 0.05 | 97 | 1016.9 |
| 20260905170545 | 21 | 26 | 3.2 | 8.0 | 0.00 | 0.05 | 0.05 | 98 | 1016.9 |
| 20260905170113 | 21 | 28 | 3.2 | 8.0 | 0.00 | 0.05 | 0.05 | 98 | 1016.9 |
| 20260905165544 | 21 | 30 | 3.2 | 14.5 | 0.00 | 0.05 | 0.05 | 98 | 1017.1 |
| 20260905165046 | 21 | 44 | 3.2 | 14.5 | 0.00 | 0.05 | 0.05 | 98 | 1017.1 |
| 20260905164603 | 21 | 18 | 3.2 | 14.5 | 0.00 | 0.05 | 0.05 | 98 | 1017.1 |
| 20260905164045 | 21 | 44 | 1.6 | 6.4 | 0.00 | 0.05 | 0.05 | 98 | 1017.0 |
| 20260905163546 | 21 | 34 | 3.2 | 6.4 | 0.00 | 0.05 | 0.05 | 98 | 1017.1 |
| 20260905163114 | 21 | 41 | 3.2 | 11.3 | 0.00 | 0.05 | 0.05 | 98 | 1017.1 |
| 20260905162544 | 21 | 43 | 4.8 | 11.3 | 0.00 | 0.05 | 0.05 | 98 | 1017.1 |
| 20260905162046 | 21 | 21 | 1.6 | 6.4 | 0.00 | 0.05 | 0.05 | 98 | 1017.1 |
| 20260905161606 | 21 | 55 | 1.6 | 8.0 | 0.00 | 0.05 | 0.05 | 98 | 1017.1 |
| 20260905161045 | 21 | 32 | 3.2 | 8.0 | 0.00 | 0.05 | 0.05 | 98 | 1017.0 |
| 20260905160547 | 21 | 12 | 3.2 | 8.0 | 0.00 | 0.05 | 0.05 | 98 | 1016.9 |
| 20260905160107 | 21 | 41 | 1.6 | 4.8 | 0.00 | 0.05 | 0.05 | 98 | 1016.8 |
| 20260905155544 | 21 | 50 | 1.6 | 4.8 | 0.00 | 0.64 | 0.05 | 98 | 1016.7 |
| 20260905155046 | 22 | 30 | 0.0 | 9.7 | 0.00 | 0.64 | 0.05 | 98 | 1016.7 |
| 20260905154618 | 21 | 30 | 1.6 | 9.7 | 0.00 | 0.64 | 0.05 | 98 | 1016.7 |
| 20260905154047 | 22 | 360 | 1.6 | 6.4 | 0.00 | 0.64 | 0.05 | 98 | 1016.6 |
| 20260905153547 | 22 | 46 | 3.2 | 6.4 | 0.00 | 0.64 | 0.05 | 98 | 1016.7 |
| 20260905153114 | 22 | 355 | 1.6 | 6.4 | 0.00 | 0.64 | 0.05 | 98 | 1016.7 |
| 20260905152547 | 22 | 42 | 1.6 | 4.8 | 0.00 | 0.64 | 0.05 | 98 | 1016.6 |
| 20260905152048 | 22 | 333 | 1.6 | 4.8 | 0.00 | 0.64 | 0.05 | 98 | 1016.5 |
| 20260905151615 | 22 | 0 | 1.6 | 14.5 | 0.00 | 0.64 | 0.05 | 98 | 1016.4 |
| 20260905151043 | 22 | 51 | 3.2 | 14.5 | 0.00 | 0.64 | 0.05 | 98 | 1016.4 |
| 20260905150544 | 21 | 355 | 1.6 | 8.0 | 0.00 | 0.64 | 0.05 | 98 | 1016.3 |
| 20260905150101 | 22 | 5 | 1.6 | 8.0 | 0.00 | 0.64 | 0.05 | 98 | 1016.3 |
| 20260905145545 | 21 | 36 | 1.6 | 6.4 | 0.00 | 1.07 | 0.05 | 98 | 1016.2 |
| 20260905145045 | 21 | 48 | 1.6 | 6.4 | 0.00 | 1.07 | 0.05 | 98 | 1016.2 |
| 20260905144604 | 21 | 46 | 1.6 | 11.3 | 0.00 | 1.07 | 0.05 | 98 | 1016.2 |
| 20260905144047 | 21 | 350 | 3.2 | 11.3 | 0.00 | 1.07 | 0.05 | 98 | 1016.2 |
| 20260905143544 | 21 | 36 | 1.6 | 4.8 | 0.00 | 1.07 | 0.05 | 98 | 1016.1 |
| 20260905143108 | 21 | 46 | 1.6 | 4.8 | 0.00 | 1.07 | 0.05 | 98 | 1016.1 |
| 20260905142547 | 21 | 26 | 1.6 | 8.0 | 0.00 | 1.07 | 0.05 | 98 | 1016.1 |
| 20260905142046 | 21 | 49 | 1.6 | 8.0 | 0.00 | 1.07 | 0.05 | 98 | 1015.9 |
| 20260905141607 | 21 | 5 | 1.6 | 6.4 | 0.00 | 1.07 | 0.05 | 98 | 1015.8 |
| 20260905141044 | 21 | 360 | 1.6 | 6.4 | 0.03 | 1.07 | 0.05 | 98 | 1015.6 |
| 20260905140545 | 21 | 355 | 1.6 | 4.8 | 0.03 | 1.07 | 0.05 | 98 | 1015.5 |
| 20260905140109 | 21 | 0 | 1.6 | 4.8 | 0.03 | 1.07 | 0.05 | 98 | 1015.5 |
| 20260905135545 | 21 | 0 | 0.0 | 6.4 | 0.03 | 1.07 | 0.05 | 98 | 1015.6 |
| 20260905135045 | 21 | 121 | 1.6 | 6.4 | 0.03 | 1.07 | 0.05 | 98 | 1015.4 |
| 20260905134604 | 21 | 355 | 1.6 | 6.4 | 0.03 | 1.07 | 0.05 | 98 | 1015.3 |
| 20260905134047 | 21 | 346 | 1.6 | 4.8 | 0.03 | 1.07 | 0.05 | 98 | 1015.5 |
| 20260905133546 | 21 | 346 | 1.6 | 4.8 | 0.03 | 1.07 | 0.05 | 98 | 1015.4 |
| 20260905133104 | 21 | 346 | 0.0 | 4.8 | 0.03 | 1.07 | 0.05 | 98 | 1015.3 |
| 20260905132546 | 21 | 346 | 1.6 | 4.8 | 0.03 | 1.07 | 0.05 | 98 | 1015.3 |
| 20260905132046 | 21 | 355 | 1.6 | 4.8 | 0.03 | 1.07 | 0.05 | 98 | 1015.2 |
| 20260905131610 | 21 | 20 | 0.0 | 3.2 | 0.03 | 1.07 | 0.05 | 98 | 1015.3 |
| 20260905131048 | 21 | 0 | 1.6 | 4.8 | 0.00 | 1.04 | 0.03 | 98 | 1015.3 |
| 20260905130545 | 21 | 0 | 0.0 | 4.8 | 0.00 | 1.04 | 0.03 | 98 | 1015.3 |
| 20260905130107 | 21 | 0 | 0.0 | 4.8 | 0.00 | 1.04 | 0.03 | 98 | 1015.3 |
| 20260905125546 | 21 | 13 | 1.6 | 6.4 | 0.00 | 1.04 | 0.03 | 98 | 1015.3 |
| 20260905125045 | 21 | 355 | 1.6 | 6.4 | 0.00 | 1.04 | 0.03 | 98 | 1015.2 |
| 20260905124608 | 21 | 38 | 1.6 | 8.0 | 0.00 | 1.04 | 0.03 | 98 | 1015.1 |
| 20260905124045 | 21 | 59 | 1.6 | 8.0 | 0.00 | 1.04 | 0.03 | 98 | 1015.2 |
| 20260905123546 | 21 | 44 | 3.2 | 8.0 | 0.00 | 1.04 | 0.03 | 98 | 1015.2 |
| 20260905123107 | 21 | 37 | 3.2 | 6.4 | 0.00 | 1.04 | 0.03 | 98 | 1015.1 |
| 20260905122544 | 21 | 5 | 3.2 | 9.7 | 0.00 | 1.04 | 0.03 | 98 | 1015.1 |
| 20260905122043 | 21 | 30 | 3.2 | 9.7 | 0.00 | 1.04 | 0.03 | 98 | 1015.2 |
| 20260905121605 | 21 | 35 | 1.6 | 6.4 | 0.00 | 1.04 | 0.03 | 98 | 1015.2 |
| 20260905121045 | 21 | 32 | 3.2 | 8.0 | 0.00 | 1.04 | 0.03 | 98 | 1015.2 |
| 20260905120547 | 21 | 355 | 3.2 | 8.0 | 0.00 | 1.04 | 0.03 | 98 | 1015.4 |
| 20260905120108 | 21 | 14 | 3.2 | 6.4 | 0.00 | 1.04 | 0.03 | 98 | 1015.1 |
| 20260905115547 | 21 | 13 | 1.6 | 6.4 | 0.00 | 1.04 | 0.03 | 98 | 1014.5 |
| 20260905115046 | 21 | 10 | 3.2 | 6.4 | 0.00 | 1.04 | 0.03 | 98 | 1014.2 |
| 20260905114606 | 21 | 25 | 3.2 | 6.4 | 0.00 | 1.04 | 0.03 | 98 | 1014.2 |
| 20260905114045 | 21 | 25 | 3.2 | 6.4 | 0.00 | 1.04 | 0.03 | 98 | 1014.1 |
| 20260905113545 | 21 | 25 | 1.6 | 3.2 | 0.00 | 1.04 | 0.03 | 98 | 1014.0 |
| 20260905113103 | 21 | 25 | 0.0 | 3.2 | 0.00 | 1.04 | 0.03 | 98 | 1014.0 |
| 20260905112547 | 21 | 25 | 0.0 | 0.0 | 0.00 | 1.04 | 0.03 | 98 | 1013.8 |
| 20260905112044 | 21 | 0 | 0.0 | 1.6 | 0.00 | 1.04 | 0.03 | 98 | 1013.8 |
| 20260905111646 | 21 | 0 | 0.0 | 3.2 | 0.00 | 1.04 | 0.03 | 98 | 1013.5 |
| 20260905111045 | 21 | 0 | 0.0 | 3.2 | 0.00 | 1.04 | 0.03 | 98 | 1013.6 |
| 20260905110545 | 21 | 25 | 1.6 | 3.2 | 0.00 | 1.04 | 0.03 | 98 | 1013.6 |